St. Augustine, FL

1:53 AM EST on December 15, 2017 (GMT -0500)
Saint Augustine

Weather History for KSGJ - January, 2012

Change the Weather History Date:

Sunday, January 29, 2012

  Actual Average Record
Temperature  
Mean Temperature 54 °F -  
Max Temperature 63 °F 62 °F 84 °F (1975)
Min Temperature 46 °F 45 °F 24 °F (2008)
Degree Days  
Heating Degree Days 10    
Growing Degree Days 4 (Base 50)    
Moisture  
Dew Point 46 °F    
Average Humidity 77    
Maximum Humidity 93    
Minimum Humidity 64    
Precipitation  
Precipitation 0.00 in - - ()
Sea Level Pressure  
Sea Level Pressure 30.31 in    
Wind  
Wind Speed 6 mph (NNW)    
Max Wind Speed 15 mph    
Max Gust Speed -    
Visibility 10 miles    
Events      
Averages and records for this station are not official NWS values.
T = Trace of Precipitation, MM = Missing Value Source: NWS Daily Summary

Daily Weather History Graph

Daily Weather History Graph

Search for Another Location

Airport or City:

Trip Planner

Search our weather history database for the weather conditions in past years. The results will help you decide how hot, cold, wet, or windy it might be!

Date:

Astronomy

Jan. 29, 2012 Rise Set
Actual Time 7:17 AM EST 5:59 PM EST
Civil Twilight 6:52 AM EST 6:24 PM EST
Nautical Twilight 6:23 AM EST 6:53 PM EST
Astronomical Twilight 5:55 AM EST 7:22 PM EST
Moon 10:41 AM EST (1/29) No Moon Set
Length of Visible Light 11h 32m
Length of Day
10h 42m
Waxing Crescent, 36% of the Moon is Illuminated
Jan 29
Waxing Crescent
Jan 30
First Quarter
Feb 7
Full
Feb 14
Last Quarter
Feb 21
New

Hourly Weather History & Observations

Time (EST) Temp. Dew Point Humidity Pressure Visibility Wind Dir Wind Speed Gust Speed Precip Events Conditions
12:58 AM 48.0 °F 45.0 °F 89% 30.23 in 10.0 mi Calm Calm - N/A   Clear
1:58 AM 46.0 °F 43.0 °F 89% 30.22 in 10.0 mi Calm Calm - N/A   Clear
2:58 AM 48.0 °F 45.0 °F 89% 30.23 in 10.0 mi West 3.5 mph - N/A   Clear
3:58 AM 48.0 °F 46.0 °F 93% 30.22 in 10.0 mi Calm Calm - N/A   Clear
4:58 AM 46.9 °F 44.1 °F 90% 30.23 in 10.0 mi Calm Calm - N/A   Clear
5:58 AM 48.0 °F 44.1 °F 86% 30.25 in 10.0 mi NNW 8.1 mph - N/A   Clear
6:58 AM 46.9 °F 44.1 °F 90% 30.29 in 10.0 mi NW 6.9 mph - N/A   Clear
7:58 AM 46.9 °F 44.1 °F 90% 30.31 in 10.0 mi NW 8.1 mph - N/A   Clear
8:58 AM 52.0 °F 46.0 °F 80% 30.32 in 10.0 mi NNW 9.2 mph - N/A   Clear
9:58 AM 57.0 °F 48.9 °F 74% 30.35 in 10.0 mi North 10.4 mph - N/A   Clear
10:58 AM 61.0 °F 52.0 °F 72% 30.35 in 10.0 mi North 13.8 mph - N/A   Clear
11:58 AM 63.0 °F 52.0 °F 67% 30.35 in 10.0 mi North 12.7 mph - N/A   Clear
12:58 PM 62.1 °F 51.1 °F 67% 30.33 in 10.0 mi North 11.5 mph - N/A   Clear
1:58 PM 62.1 °F 50.0 °F 65% 30.31 in 10.0 mi NNE 13.8 mph - N/A   Clear
2:58 PM 61.0 °F 48.9 °F 64% 30.30 in 10.0 mi North 15.0 mph - N/A   Clear
3:58 PM 60.1 °F 48.9 °F 67% 30.30 in 10.0 mi NNE 12.7 mph - N/A   Clear
4:58 PM 59.0 °F 48.9 °F 69% 30.31 in 10.0 mi NNE 13.8 mph - N/A   Clear
5:58 PM 57.0 °F 48.0 °F 72% 30.32 in 10.0 mi NNE 10.4 mph - N/A   Clear
6:58 PM 57.0 °F 46.9 °F 69% 30.34 in 10.0 mi NNE 8.1 mph - N/A   Clear
7:58 PM 55.9 °F 45.0 °F 67% 30.36 in 10.0 mi North 8.1 mph - N/A   Clear
8:58 PM 55.0 °F 45.0 °F 69% 30.37 in 10.0 mi North 6.9 mph - N/A   Clear
9:58 PM 52.0 °F 44.1 °F 74% 30.38 in 10.0 mi NW 4.6 mph - N/A   Clear
10:58 PM 50.0 °F 43.0 °F 77% 30.38 in 10.0 mi NW 3.5 mph - N/A   Clear
11:58 PM 46.9 °F 41.0 °F 80% 30.38 in 10.0 mi NW 5.8 mph - N/A   Clear